Miscellaneous Local Product
Issued by NWS Hastings, NE

Home | Current Version | Previous Version | Text Only | Print | Product List | Glossary Off
Versions: 1 2 3 4 5 6 7 8 9 10 11 12 13 14 15 16 17 18 19 20 21 22 23 24 25 26 27 28 29 30 31 32 33 34 35 36 37 38 39 40 41 42 43 44 45 46 47 48 49 50

000
AXUS43 KGID 292302
MISGRI

GID CWA HOURLY WEATHER ROUNDUP
NATIONAL WEATHER SERVICE HASTINGS NE
600 PM CDT SAT AUG 29 2015

NOTE: "FAIR" INDICATES FEW OR NO CLOUDS BELOW 12,000 FEET WITH NO
SIGNIFICANT WEATHER AND/OR OBSTRUCTIONS TO VISIBILITY.

...SOUTH CENTRAL NEBRASKA...

CITY           SKY/WX    TMP DP  RH WIND       PRES   REMARKS
GRAND ISLAND   MOSUNNY   80  62  54 SE6       30.05F
HASTINGS       SUNNY     80  62  54 NE7       30.05F
KEARNEY        SUNNY     82  64  54 E8        30.05F
ORD            SUNNY     85  59  41 SE7       30.01F
YORK           MOSUNNY   75  66  73 CALM      30.04F
AURORA         MOSUNNY   77  63  62 E3        30.05S
LEXINGTON      SUNNY     85  62  46 SE9       30.05F
HOLDREGE       SUNNY     81  61  50 E8        30.06S
HEBRON         SUNNY     78  62  57 NE5       30.03S

...NEBRASKA PANHANDLE...

CITY           SKY/WX    TMP DP  RH WIND       PRES   REMARKS
CHADRON        SUNNY     95  43  16 S16       29.97F HAZE    HX  91
ALLIANCE       SUNNY     92  36  14 S9G23     30.05F
SCOTTSBLUFF    SUNNY     91  45  20 S12       30.03F
SIDNEY         SUNNY     91  37  15 S13G22    30.10F

...WESTERN AND NORTH CENTRAL NEBRASKA...

CITY           SKY/WX    TMP DP  RH WIND       PRES   REMARKS
VALENTINE      SUNNY     92  47  21 S10       29.99F
AINSWORTH      SUNNY     87  61  41 S7        30.01F
ONEILL         SUNNY     84  65  52 S8        30.01F
BROKEN BOW     SUNNY     86  62  44 S8        30.04F
IMPERIAL       SUNNY     93  41  16 SE12      30.06F
NORTH PLATTE   SUNNY     88  56  33 S6        30.04F
MCCOOK         MOSUNNY   91  54  28 SE8       30.04F

...EASTERN NEBRASKA...

CITY           SKY/WX    TMP DP  RH WIND       PRES   REMARKS
NORFOLK        SUNNY     77  66  68 SE6       30.03S
SO SIOUX CITY  MOSUNNY   70  63  78 SE9       30.03F
TEKAMAH        MOSUNNY   69  63  81 CALM      30.04S
COLUMBUS       MOSUNNY  N/A N/A N/A E5        30.03F
ALBION         SUNNY     78  65  65 SE5       30.03F
OMAHA EPPLEY   CLOUDY    72  63  73 CALM      30.04S
MILLARD        MOSUNNY   71  62  74 CALM      30.04F
LINCOLN        MOSUNNY   73  63  70 E6        30.05S
NEBRASKA CITY  PTSUNNY   67  62  83 N5        30.04F
BEATRICE       MOSUNNY   69  62  80 E5        30.04S
FALLS CITY     CLOUDY    68  63  84 N7        30.04S

...NORTHERN KANSAS...

CITY           SKY/WX    TMP DP  RH WIND       PRES   REMARKS
GOODLAND       SUNNY     89  38  16 S9        30.10F
HILL CITY      SUNNY     89  56  32 E8        30.05S
NORTON         CLEAR     86  50  28 E7        30.05S
PHILLIPSBURG   SUNNY     90  54  29 CALM      30.04S
SMITH CENTER   SUNNY     82  57  42 E8        30.04F
HAYS           SUNNY     88  52  29 E10       30.04S
RUSSELL        SUNNY     83  59  44 E9        30.02F
CONCORDIA      SUNNY     75  64  68 VRB3      30.03F
SALINA         MOSUNNY   75  63  66 E8        30.03F
TOPEKA         CLOUDY    75  66  73 N5        30.01S



USA.gov is the U.S. government's official web portal to all federal, state and local government web resources and services.